Weather in Sardayal

Russia / Mari El Republic     56°26′48″N   49°58′27″E
temp.,
°C
wind,
m/s
gust,
m/s
humid.,
%
clouds,
%
prec.,
mm/h
press.,
hPa
HPBL,
m
8 march, mon
mon800:00−8s81494100 1.1 998749
03:00−7s71393100 1.9 994653
06:00−6sse61195100 0.9 991578
09:00−4wnw2396100 2.5 990305
12:00−5w91490100 1.6 9931077
15:00−5wsw7117996 1.8 996835
18:00−9sw599241 0.0 999187
21:00−10w479571 0.0 1000118
9 march, tue
tue900:00−13w449765 0.0 100162
03:00−15wnw449749 0.0 100472
06:00−16wnw349884 0.1 100668
09:00−13wnw249584 0.1 1008200
12:00−10nw228799 0.0 1010467
15:00−10nnw239099 0.1 1010368
18:00−14nnw3496100 0.1 1011104
21:00−15n3696100 0.2 1012159
10 march, wed
wed1000:00−16n489696 0.1 1012237
03:00−19n599798 0.1 1013249
06:00−24n5109799 0.1 1014239
09:00−24n6109699 0.1 1016302
12:00−22n699382 0.0 1017399
15:00−20nnw6108865 0.0 1018498
18:00−22nnw49925 0.0 1019184
21:00−24nnw49962 0.0 1021143
11 march, thu
thu1100:00−26nw47980 0.0 102194
03:00−26wnw46990 0.0 102283
06:00−24wnw489835 0.0 1022180
09:00−19wnw579468 0.1 1022328
12:00−14nw5893100 0.2 1021499
15:00−11nw4990100 0.4 1021560
18:00−10nw41091100 0.1 1023372
21:00−13nw4109094 0.1 1025205
12 march, fri
fri1200:00−16nw46932 0.0 102788
03:00−17nw34911 0.0 102856
06:00−18wnw34890 0.0 103032
09:00−13w35860 0.0 1031191
12:00−9wsw35840 0.0 1031352
15:00−7wsw46850 0.0 1031509
18:00−13sw46940 0.0 103089
21:00−16sw45930 0.0 103183